METEOR 2-11 DEB, 60007

Orbit data source: Space-Track

METEOR 2-11 DEB, 60007 is space debris in LEO originally from a launch on Thu, 05 Jul 1984 UTC launched from the Plesetsk Missile And Space Complex (PKMTR). Debris objects in space refer to the collection of defunct objects orbiting the Earth. Examples of debris include non-operational satellites, rocket bodies, and fragments generated from explosions, collisions, or faulty payload assembly.

Loading next visibility...
Identifier
60007, 1984-072AC
Orbit
LEO
Country
Flag of CISCIS
Related business
Manufacturer
Unknown
Mission
Spacecraft
Bus & Motor
Unknown
Mass
Unknown
Launch date (UTC)
1984-07-05 (42 years ago)
Launch vehicle
Unknown
Launch site
Plesetsk Missile And Space Complex (PKMTR)
Object type
Payload
Rocket body
Debris
Shape & HBR
Unknown shape, 1.1 m
Radar Cross Section
Small (<0.1 m²)

Expand to show TLE details & history
Last TLE update: 1 month ago

TLE from 1 month ago
0 METEOR 2-11 DEB
1 60007U 84072AC  26102.17412426  .00002341  00000-0  15639-2 0  9998
2 60007  82.5301  62.3919 0026535 126.4410 233.9211 14.00477085421298
Epoch: 2026-04-12T04:10Z
TLE epoch observation values (Epoch: 2026-04-12T04:10:44.336Z)
Latitude
-0.00002°
Longitude
159.3243°
Altitude
906.464 km
Speed
7.393 km/s
True Right ascension
04h 09m 34s
True Declination
0° 00' 00"
Sunlit
Object was in daylight at epoch
Visualization orbit readout
Latitude
Unknown
Longitude
Unknown
Altitude
Unknown
Speed
Unknown
Apparent Right ascension
Unknown
Apparent Declination
Unknown
Sunlit
N/A
Visualization observer readout
Local Sidereal Time
03:13:24
Azimuth
Unknown
Elevation
Unknown
Doppler factor
Unknown
Orbital elements
Apogee altitude
908.558 km
Perigee altitude
869.989 km
Semi-major axis
7,267.411 km
Eccentricity
0.00265
Inclination
82.5301°
RAAN
62.3919°
Arg. of periapsis
126.441°
True anomaly
233.67583°
Mean anomaly
233.9211°
Eccentric anomaly
233.79842°
Mean motion
3.50327 °/min
Orbital period
102.76 mins
BSTAR
0.0015639
Loading maneuver chart data...
Computing Atmospheric mass density...
Loading historical data...
Loading historical data...
Loading historical data...
Loading historical data...
Loading historical data...
Loading historical data...
Loading historical data...

Documentation

Showing up to 5 results
|